Regional Weather Roundup
Issued by NWS

Home | Current Version | Previous Version | Graphics & Text | Print | Product List | Glossary Off
Versions: 1 2 3 4 5 6 7 8 9 10 11 12 13 14 15 16 17 18 19 20 21 22 23 24 25 26 27 28 29 30 31 32 33 34 35 36 37 38 39 40 41 42 43 44 45 46 47 48 49 50

000
ASUS43 KLSX 130110
RWRMO

WEATHER SUMMARY FOR MISSOURI
NATIONAL WEATHER SERVICE SPRINGFIELD MO
700 PM CST FRI FEB 12 2016

NOTE: "FAIR" INDICATES FEW OR NO CLOUDS BELOW 12,000 FEET WITH NO
       SIGNIFICANT WEATHER AND/OR OBSTRUCTIONS TO VISIBILITY.
       CURRENT SKY AND/OR WEATHER CONDITIONS ARE NOT AVAILABLE FOR
       CHILLICOTHE AND FARMINGTON.

MOZ001>031-035>038-043-044-053-054-130200-
...NORTHERN AND WESTERN MISSOURI...

CITY           SKY/WX    TMP DP  RH WIND       PRES   REMARKS
KANSAS CTY INT CLEAR     24   8  50 N10       30.53R WCI  14
KANSAS C DTWN  CLEAR     28   7  41 N9        30.54R WCI  19
LEE`S SUMMIT   CLEAR     27   8  44 N13       30.52R WCI  16
ST JOSEPH      CLEAR     22   7  52 N13       30.58R WCI  10
CHILLICOTHE      N/A     22   5  48 NW8       30.56R WCI  12
KIRKSVILLE     CLEAR     17   4  56 NW7       30.51R WCI   8

$$
MOZ066>068-077>081-088>096-101>105-130200-
...SOUTHWEST MISSOURI...

CITY           SKY/WX    TMP DP  RH WIND       PRES   REMARKS
SPRINGFIELD    CLEAR     35  18  49 N14       30.41R WCI  26
JOPLIN         CLOUDY    36  24  62 MISG      30.46R

$$
MOZ032>034-039>042-045>050-055>058-069>072-130200-
...CENTRAL MISSOURI...

CITY           SKY/WX    TMP DP  RH WIND       PRES   REMARKS
COLUMBIA       CLEAR     27  11  51 N13       30.47R WCI  16
JEFFERSON CITY CLEAR     30  10  43 N9        30.48R WCI  22
ROLLA          CLEAR     28  13  53 NW7       30.41R WCI  21
SEDALIA        CLEAR     28   9  44 N13       30.51R WCI  17
WHITEMAN AFB   CLEAR     27   8  45 N14       30.49R WCI  15
WARRENSBURG    CLEAR     28   9  43 N12       30.51R WCI  18
OSAGE BEACH    CLEAR     30  10  43 N6        30.46R WCI  24

$$
MOZ051-052-059>065-130200-
...EAST CENTRAL MISSOURI...

CITY           SKY/WX    TMP DP  RH WIND       PRES   REMARKS
ST LOUIS INTL  PTCLDY    27  13  55 NW13      30.44R WCI  16
SPIRIT OF STL  CLEAR     27  11  51 NW12      30.46R WCI  17
ST CHARLES     CLEAR     25  11  55 NW15      30.46R WCI  13

$$
MOZ072>076-082>087-097>100-106>115-130200-
...SOUTH CENTRAL AND SOUTHEAST MISSOURI...

CITY           SKY/WX    TMP DP  RH WIND       PRES   REMARKS
CAPE GIRARDEAU CLEAR     33  20  58 N12       30.40R WCI  24
FARMINGTON     CLEAR     29  17  61 NW14      30.41R WCI  18
POPLAR BLUFF   CLEAR     38  23  55 N10       30.37R
WEST PLAINS    CLEAR     36  18  48 N7        30.38R

$$



USA.gov is the U.S. government's official web portal to all federal, state and local government web resources and services.